全球星 M083星 (GLOBALSTAR M083)

导读

GLOBALSTAR M083是全球星(Globalstar)星座中的一颗通信卫星,于2011年7月13日发射,归属全球星系统运营。该卫星主要为全球范围内提供语音、数据等移动通信服务,填补地面网络覆盖盲区,服务偏远地区、航海航空等场景。它运行在近地轨道,设计服役时长约15年,是全球星第二代组网补网发射的卫星之一,增强了系统通信容量与服务可靠性,支撑全球低轨卫星移动通信网络稳定运行。

基本信息
目录编号:
37739
目录名称:
GLOBALSTAR M083
国际标识:
2011-033A
轨道中心:
EARTH
卫星名称:
全球星 M083星
卫星全名:
全球星 M083星 (GLOBALSTAR M083)
卫星状态:
在轨 (已飞行5540 天)
发射日期:
2011-07-13 UTC
国别 :
(GLOB)
星等 :
--
该卫星已列入 空间交会检测服务 Space Conjunction Data Service (SCDS) ,当前飞行风险评估等级: 无高风险
轨道信息
数据来源 国际轨道数据 AOE轨道数据
星历时间 2026-09-12T05:53:35+0800
8小时前
查看轨道信息
2026-09-10T22:00:00+0800
1天前
查看轨道信息
半长轴 7791.772km 7791.773km
偏心率 0.0000641 0.0000615
轨道倾角 51.984° 51.984°
近地点辐角 101.404° 85.287°
升交点赤经 108.413° 112.461°
平近点角 273.879° 8.444°
近地点 1413.135km 1413.156km
远地点 1414.135km 1414.116km
周期 114.081分钟 114.081分钟
每日圈数 12.62259 12.622587
详细信息
固有亮度:
5
最大亮度:
7.2
平衡模式:
三轴稳定
覆盖范围:
全球
运营商:
全球星公司
运营商所在国:
美国
使用方式:
暂无
卫星简介
全球星星座由48颗卫星加8颗备份星组成。这些卫星分布在8个倾角为52度的圆形轨道平面上,每个轨道平面6颗卫星,另有1 颗备用星。轨道高度约为1414km,传输时延和处理时延小于300ms,整个系统的覆盖区为南北纬70度以内的地区。该卫星已退役。
2D轨道图
3D轨道图
轨道高度分析图
轨道倾角分析图
轨道综合分析图
查看轨道综合分析图
交会数据列表
事件ID 空间交会对象 最接近时刻(TCA) 交会距离 交会风险概率(CRP) 交会风险指数(CRI) 操作
CDM_260914-053601-562303-773923
2026-09-14T
05:36:27+0000
2.730 km
极远距离
7.087786E-7 极低风险 0.32
与全量物体交会距离演化趋势
与全量物体交会风险概率演化趋势